User: anonymous   Login
Location: *
(51.1248°S, 108.4023°W)
Time: 12:03:30
(UTC+00:00)
Language:

CZ-4C R/B - Orbit

View from above orbital plane
View from above orbital plane
View from above satellite
View from above satellite

Ground track
Ground track

The orbit data is extracted from the following two-line orbital elements,

1 32290U 07055B   21261.05430303  .00002633  00000-0  63722-4 0  9991
2 32290  97.6864  84.1500 0056918 340.8426  19.0678 15.40489843770586
Epoch (UTC): 18 September 2021 01:18:11
Eccentricity: 0.0056918
inclination: 97.6864°
perigee height: 406 km
apogee height: 483 km
right ascension of ascending node: 84.1500°
argument of perigee: 340.8426°
revolutions per day: 15.40489843
mean anomaly at epoch: 19.0678°
orbit number at epoch: 77058

The dashed part of the orbit path shows where the satellite is in the earth's shadow,  

DLR